STARLINK-34313

Last updated on Fri Jun 27 2025 00:02:05 GMT+0000 (Coordinated Universal Time)

1 64166U 25112W 25177.58334491 .00077220 00000+0 19649-2 0 9991 2 64166 97.6028 227.6446 0001456 90.1066 90.9977 15.39301927 5811
UTC large
Height (km)
Speed (km/s)
/
Latitude / Longitude
Inclination (degrees)
Orbital Period (minutes)
Azimuth
Elevation
Range (km)
Doppler Factor

Next 0 passes for location: London (51.5072 / 0.1276)

Sorry there are no passes over London.